| time (UTC) | temp F | wind direction | speed MPH | gust MPH | rain 1hr in | rain 24hr in | rain mn in | humidity % | barometer mb |
| 20260901160904 | 78 | 292 | 3.0 | 6.0 | 0.00 | 0.00 | 0.00 | 45 | 1017.7 |
| 20260901160404 | 78 | 304 | 4.0 | 7.0 | 0.00 | 0.00 | 0.00 | 45 | 1017.7 |
| 20260901155404 | 78 | 330 | 3.0 | 7.0 | 0.00 | 0.00 | 0.00 | 46 | 1017.7 |
| 20260901154904 | 78 | 293 | 3.0 | 6.0 | 0.00 | 0.00 | 0.00 | 46 | 1017.6 |
| 20260901154404 | 78 | 294 | 4.0 | 7.0 | 0.00 | 0.00 | 0.00 | 46 | 1017.6 |
| 20260901153904 | 78 | 289 | 2.0 | 6.0 | 0.00 | 0.00 | 0.00 | 46 | 1017.6 |
| 20260901153404 | 78 | 309 | 2.0 | 6.0 | 0.00 | 0.00 | 0.00 | 46 | 1017.5 |
| 20260901152904 | 78 | 307 | 3.0 | 12.0 | 0.00 | 0.00 | 0.00 | 46 | 1017.5 |
| 20260901152404 | 78 | 296 | 4.0 | 7.0 | 0.00 | 0.00 | 0.00 | 46 | 1017.5 |
| 20260901151904 | 78 | 281 | 2.0 | 6.0 | 0.00 | 0.00 | 0.00 | 46 | 1017.4 |
| 20260901151404 | 78 | 270 | 2.0 | 5.0 | 0.00 | 0.00 | 0.00 | 46 | 1017.4 |
| 20260901150904 | 78 | 287 | 2.0 | 6.0 | 0.00 | 0.00 | 0.00 | 44 | 1017.4 |
| 20260901150404 | 79 | 302 | 3.0 | 7.0 | 0.00 | 0.00 | 0.00 | 44 | 1017.4 |
| 20260901145904 | 79 | 285 | 5.0 | 10.0 | 0.00 | 0.00 | 0.00 | 44 | 1017.5 |
| 20260901145405 | 79 | 294 | 5.0 | 10.0 | 0.00 | 0.00 | 0.00 | 43 | 1017.5 |
| 20260901144904 | 80 | 301 | 5.0 | 9.0 | 0.00 | 0.00 | 0.00 | 43 | 1017.5 |
| 20260901144405 | 80 | 290 | 7.0 | 12.0 | 0.00 | 0.00 | 0.00 | 42 | 1017.4 |
| 20260901143904 | 80 | 262 | 3.0 | 8.0 | 0.00 | 0.00 | 0.00 | 45 | 1017.4 |
| 20260901143404 | 80 | 231 | 2.0 | 6.0 | 0.00 | 0.00 | 0.00 | 44 | 1017.4 |
| 20260901142904 | 79 | 315 | 7.0 | 12.0 | 0.00 | 0.00 | 0.00 | 43 | 1017.4 |
| 20260901142404 | 79 | 290 | 5.0 | 12.0 | 0.00 | 0.00 | 0.00 | 44 | 1017.4 |
| 20260901141904 | 78 | 254 | 2.0 | 6.0 | 0.00 | 0.00 | 0.00 | 46 | 1017.3 |
| 20260901140404 | 79 | 277 | 3.0 | 8.0 | 0.00 | 0.00 | 0.00 | 45 | 1017.4 |
| 20260901135906 | 79 | 288 | 5.0 | 8.0 | 0.00 | 0.00 | 0.00 | 45 | 1017.4 |
| 20260901135404 | 79 | 240 | 4.0 | 9.0 | 0.00 | 0.00 | 0.00 | 46 | 1017.4 |
| 20260901134904 | 80 | 234 | 3.0 | 9.0 | 0.00 | 0.00 | 0.00 | 44 | 1017.5 |
| 20260901133904 | 80 | 287 | 3.0 | 10.0 | 0.00 | 0.01 | 0.00 | 44 | 1017.5 |
| 20260901133404 | 79 | 308 | 7.0 | 10.0 | 0.00 | 0.01 | 0.00 | 44 | 1017.5 |
| 20260901132904 | 79 | 301 | 8.0 | 13.0 | 0.00 | 0.01 | 0.00 | 46 | 1017.5 |
| 20260901132405 | 79 | 275 | 2.0 | 10.0 | 0.00 | 0.01 | 0.00 | 46 | 1017.5 |
| 20260901131905 | 78 | 238 | 3.0 | 9.0 | 0.00 | 0.01 | 0.00 | 49 | 1017.5 |
| 20260901131404 | 77 | 225 | 3.0 | 9.0 | 0.00 | 0.01 | 0.00 | 51 | 1017.5 |
| 20260901130904 | 77 | 232 | 3.0 | 10.0 | 0.00 | 0.01 | 0.00 | 53 | 1017.6 |
| 20260901130405 | 76 | 246 | 5.0 | 10.0 | 0.00 | 0.01 | 0.00 | 50 | 1017.6 |
| 20260901125904 | 76 | 233 | 3.0 | 7.0 | 0.00 | 0.01 | 0.00 | 52 | 1017.6 |
| 20260901125404 | 76 | 291 | 4.0 | 7.0 | 0.00 | 0.01 | 0.00 | 52 | 1017.6 |
| 20260901124904 | 76 | 286 | 6.0 | 12.0 | 0.00 | 0.01 | 0.00 | 50 | 1017.7 |
| 20260901124405 | 76 | 227 | 3.0 | 9.0 | 0.00 | 0.01 | 0.00 | 52 | 1017.6 |
| 20260901123904 | 75 | 327 | 3.0 | 9.0 | 0.00 | 0.01 | 0.00 | 53 | 1017.7 |
| 20260901123404 | 75 | 286 | 4.0 | 7.0 | 0.00 | 0.01 | 0.00 | 52 | 1017.7 |
| 20260901122904 | 75 | 298 | 4.0 | 7.0 | 0.00 | 0.01 | 0.00 | 53 | 1017.7 |
| 20260901122404 | 75 | 295 | 3.0 | 8.0 | 0.00 | 0.01 | 0.00 | 54 | 1017.7 |
| 20260901121904 | 74 | 219 | 2.0 | 7.0 | 0.00 | 0.01 | 0.00 | 55 | 1017.7 |
| 20260901121405 | 74 | 281 | 2.0 | 5.0 | 0.00 | 0.01 | 0.00 | 54 | 1017.7 |
| 20260901120905 | 74 | 320 | 3.0 | 8.0 | 0.00 | 0.01 | 0.00 | 55 | 1017.7 |
| 20260901120405 | 74 | 273 | 4.0 | 9.0 | 0.00 | 0.01 | 0.00 | 54 | 1017.7 |
| 20260901115904 | 74 | 299 | 6.0 | 12.0 | 0.00 | 0.01 | 0.00 | 54 | 1017.7 |
| 20260901115404 | 74 | 247 | 3.0 | 7.0 | 0.00 | 0.01 | 0.00 | 56 | 1017.6 |
| 20260901114904 | 74 | 219 | 1.0 | 5.0 | 0.00 | 0.01 | 0.00 | 56 | 1017.7 |
| 20260901114404 | 74 | 279 | 3.0 | 6.0 | 0.00 | 0.01 | 0.00 | 56 | 1017.8 |
| 20260901113904 | 74 | 229 | 2.0 | 6.0 | 0.00 | 0.01 | 0.00 | 56 | 1017.9 |
| 20260901112904 | 74 | 304 | 4.0 | 12.0 | 0.00 | 0.01 | 0.00 | 57 | 1017.9 |
| 20260901112404 | 73 | 263 | 3.0 | 10.0 | 0.00 | 0.01 | 0.00 | 58 | 1017.8 |
| 20260901111904 | 73 | 238 | 3.0 | 7.0 | 0.00 | 0.01 | 0.00 | 60 | 1017.9 |
| 20260901111404 | 73 | 274 | 2.0 | 7.0 | 0.00 | 0.01 | 0.00 | 58 | 1017.9 |
| 20260901105905 | 73 | 279 | 2.0 | 6.0 | 0.00 | 0.01 | 0.00 | 60 | 1017.9 |
| 20260901105405 | 73 | 218 | 1.0 | 3.0 | 0.00 | 0.01 | 0.00 | 59 | 1017.9 |
| 20260901104404 | 73 | 217 | 1.0 | 3.0 | 0.00 | 0.01 | 0.00 | 60 | 1018.0 |
| 20260901103904 | 73 | 268 | 2.0 | 7.0 | 0.00 | 0.01 | 0.00 | 59 | 1018.0 |
| 20260901103404 | 73 | 310 | 3.0 | 7.0 | 0.00 | 0.01 | 0.00 | 60 | 1018.0 |
| 20260901102904 | 73 | 278 | 1.0 | 3.0 | 0.00 | 0.01 | 0.00 | 60 | 1018.0 |
| 20260901102405 | 73 | 277 | 3.0 | 3.0 | 0.00 | 0.01 | 0.00 | 60 | 1018.0 |
| 20260901101904 | 73 | 294 | 3.0 | 6.0 | 0.00 | 0.01 | 0.00 | 60 | 1017.9 |
| 20260901101404 | 72 | 293 | 3.0 | 7.0 | 0.00 | 0.01 | 0.00 | 61 | 1017.9 |
| 20260901100904 | 72 | 232 | 3.0 | 6.0 | 0.00 | 0.01 | 0.00 | 64 | 1018.0 |
| 20260901095905 | 71 | 267 | 2.0 | 8.0 | 0.00 | 0.01 | 0.00 | 63 | 1018.0 |
| 20260901095404 | 71 | 239 | 4.0 | 8.0 | 0.00 | 0.01 | 0.00 | 64 | 1018.0 |
| 20260901094904 | 71 | 38 | 3.0 | 7.0 | 0.00 | 0.01 | 0.00 | 63 | 1018.1 |
| 20260901094404 | 71 | 233 | 1.0 | 7.0 | 0.00 | 0.01 | 0.00 | 65 | 1018.0 |
| 20260901093904 | 71 | 236 | 2.0 | 5.0 | 0.00 | 0.01 | 0.00 | 64 | 1018.0 |
| 20260901093404 | 71 | 279 | 3.0 | 6.0 | 0.00 | 0.01 | 0.00 | 63 | 1018.1 |
| 20260901092904 | 71 | 283 | 2.0 | 6.0 | 0.00 | 0.01 | 0.00 | 65 | 1018.0 |
| 20260901092404 | 71 | 244 | 2.0 | 6.0 | 0.00 | 0.01 | 0.00 | 64 | 1018.1 |
| 20260901091905 | 71 | 275 | 2.0 | 7.0 | 0.00 | 0.01 | 0.00 | 63 | 1018.0 |
| 20260901090904 | 70 | 287 | 4.0 | 8.0 | 0.00 | 0.01 | 0.00 | 64 | 1018.0 |
| 20260901090404 | 70 | 293 | 4.0 | 8.0 | 0.00 | 0.01 | 0.00 | 65 | 1018.0 |
| 20260901085904 | 70 | 292 | 2.0 | 8.0 | 0.00 | 0.01 | 0.00 | 64 | 1018.1 |
| 20260901085404 | 70 | 220 | 2.0 | 5.0 | 0.00 | 0.01 | 0.00 | 65 | 1017.9 |
| 20260901084904 | 70 | 246 | 4.0 | 8.0 | 0.00 | 0.01 | 0.00 | 65 | 1018.0 |
| 20260901084404 | 70 | 281 | 2.0 | 7.0 | 0.00 | 0.01 | 0.00 | 66 | 1018.0 |
| 20260901083905 | 70 | 294 | 4.0 | 8.0 | 0.00 | 0.01 | 0.00 | 66 | 1017.9 |
| 20260901083404 | 70 | 241 | 3.0 | 6.0 | 0.00 | 0.01 | 0.00 | 66 | 1017.9 |
| 20260901082904 | 70 | 289 | 5.0 | 9.0 | 0.00 | 0.01 | 0.00 | 67 | 1017.9 |
| 20260901081904 | 69 | 308 | 5.0 | 9.0 | 0.00 | 0.01 | 0.00 | 67 | 1017.9 |
| 20260901081404 | 69 | 290 | 4.0 | 8.0 | 0.00 | 0.01 | 0.00 | 68 | 1018.0 |
| 20260901080404 | 68 | 243 | 5.0 | 12.0 | 0.00 | 0.01 | 0.00 | 69 | 1017.9 |
| 20260901075904 | 68 | 235 | 3.0 | 12.0 | 0.00 | 0.01 | 0.00 | 70 | 1017.8 |
| 20260901075404 | 67 | 236 | 1.0 | 6.0 | 0.00 | 0.01 | 0.00 | 72 | 1017.8 |
| 20260901074904 | 67 | 234 | 2.0 | 6.0 | 0.00 | 0.01 | 0.00 | 74 | 1017.8 |
| 20260901074404 | 67 | 234 | 3.0 | 8.0 | 0.00 | 0.01 | 0.00 | 73 | 1017.7 |
| 20260901073905 | 66 | 233 | 5.0 | 9.0 | 0.00 | 0.01 | 0.00 | 73 | 1017.7 |
| 20260901072904 | 66 | 192 | 2.0 | 5.0 | 0.00 | 0.01 | 0.00 | 76 | 1017.6 |
| 20260901072405 | 66 | 188 | 2.0 | 7.0 | 0.00 | 0.01 | 0.00 | 74 | 1017.6 |
| 20260901071904 | 65 | 225 | 5.0 | 10.0 | 0.00 | 0.01 | 0.00 | 77 | 1017.6 |
| 20260901071404 | 65 | 204 | 4.0 | 8.0 | 0.00 | 0.01 | 0.00 | 78 | 1017.5 |
| 20260901070905 | 65 | 215 | 3.0 | 8.0 | 0.00 | 0.01 | 0.00 | 78 | 1017.4 |
| 20260901070404 | 64 | 195 | 3.0 | 8.0 | 0.00 | 0.01 | 0.00 | 81 | 1017.4 |
| 20260901065905 | 63 | 207 | 4.0 | 8.0 | 0.00 | 0.01 | 0.00 | 81 | 1017.4 |
| 20260901065405 | 62 | 208 | 5.0 | 10.0 | 0.00 | 0.01 | 0.00 | 84 | 1017.3 |
| 20260901064905 | 61 | 182 | 1.0 | 5.0 | 0.00 | 0.01 | 0.00 | 85 | 1017.2 |
| 20260901064404 | 61 | 182 | 3.0 | 7.0 | 0.00 | 0.01 | 0.00 | 88 | 1017.2 |
| 20260901063904 | 60 | 192 | 2.0 | 3.0 | 0.00 | 0.01 | 0.00 | 90 | 1017.1 |
| 20260901063404 | 60 | 215 | 3.0 | 6.0 | 0.00 | 0.01 | 0.00 | 91 | 1017.1 |
| 20260901062904 | 59 | 208 | 3.0 | 7.0 | 0.00 | 0.01 | 0.00 | 92 | 1017.1 |
| 20260901062404 | 59 | 178 | 3.0 | 5.0 | 0.00 | 0.01 | 0.00 | 92 | 1017.1 |
| 20260901061904 | 59 | 182 | 2.0 | 6.0 | 0.00 | 0.01 | 0.00 | 92 | 1017.1 |
| 20260901061404 | 58 | 157 | 3.0 | 5.0 | 0.00 | 0.01 | 0.00 | 92 | 1017.1 |
| 20260901060904 | 58 | 122 | 0.0 | 0.0 | 0.00 | 0.01 | 0.00 | 92 | 1017.0 |
| 20260901060404 | 58 | 96 | 0.0 | 0.0 | 0.00 | 0.01 | 0.00 | 93 | 1017.0 |
| 20260901055404 | 57 | 96 | 0.0 | 0.0 | 0.00 | 0.01 | 0.00 | 92 | 1016.8 |
| 20260901054904 | 57 | 96 | 0.0 | 0.0 | 0.00 | 0.01 | 0.00 | 92 | 1016.8 |
| 20260901054405 | 57 | 96 | 0.0 | 0.0 | 0.00 | 0.01 | 0.00 | 92 | 1016.8 |
| 20260901051905 | 57 | 96 | 0.0 | 0.0 | 0.00 | 0.01 | 0.00 | 92 | 1016.6 |
| 20260901051404 | 57 | 96 | 0.0 | 0.0 | 0.00 | 0.01 | 0.00 | 92 | 1016.6 |
| 20260901050905 | 57 | 96 | 0.0 | 0.0 | 0.00 | 0.01 | 0.00 | 92 | 1016.6 |
| 20260901050404 | 57 | 96 | 0.0 | 0.0 | 0.00 | 0.01 | 0.00 | 92 | 1016.5 |
| 20260901045404 | 57 | 96 | 0.0 | 0.0 | 0.00 | 0.01 | 0.00 | 92 | 1016.5 |
| 20260901044904 | 56 | 96 | 0.0 | 1.0 | 0.00 | 0.01 | 0.00 | 92 | 1016.4 |
| 20260901044404 | 56 | 96 | 0.0 | 2.0 | 0.00 | 0.01 | 0.00 | 92 | 1016.3 |
| 20260901043904 | 57 | 96 | 0.0 | 1.0 | 0.00 | 0.01 | 0.00 | 92 | 1016.3 |
| 20260901043404 | 57 | 96 | 0.0 | 2.0 | 0.00 | 0.01 | 0.00 | 91 | 1016.2 |
| 20260901042904 | 57 | 96 | 1.0 | 2.0 | 0.00 | 0.01 | 0.00 | 91 | 1016.2 |
| 20260901042404 | 57 | 96 | 1.0 | 2.0 | 0.00 | 0.01 | 0.00 | 91 | 1016.1 |
| 20260901041404 | 57 | 96 | 0.0 | 0.0 | 0.00 | 0.01 | 0.00 | 91 | 1016.0 |
| 20260901040405 | 57 | 96 | 0.0 | 0.0 | 0.00 | 0.01 | 0.00 | 91 | 1015.9 |
| 20260901035904 | 57 | 96 | 0.0 | 0.0 | 0.00 | 0.01 | 0.00 | 91 | 1015.8 |
| 20260901035404 | 57 | 96 | 0.0 | 0.0 | 0.00 | 0.01 | 0.00 | 91 | 1015.8 |
| 20260901034904 | 57 | 96 | 0.0 | 0.0 | 0.00 | 0.01 | 0.00 | 91 | 1015.8 |
| 20260901033404 | 58 | 96 | 0.0 | 0.0 | 0.00 | 0.01 | 0.00 | 91 | 1015.5 |
| 20260901032904 | 58 | 96 | 0.0 | 0.0 | 0.00 | 0.01 | 0.00 | 91 | 1015.5 |
| 20260901032404 | 58 | 96 | 0.0 | 0.0 | 0.00 | 0.01 | 0.00 | 91 | 1015.5 |
| 20260901031905 | 58 | 96 | 0.0 | 0.0 | 0.00 | 0.01 | 0.00 | 90 | 1015.5 |
| 20260901031404 | 58 | 96 | 0.0 | 0.0 | 0.00 | 0.01 | 0.00 | 90 | 1015.5 |
| 20260901030904 | 59 | 96 | 0.0 | 0.0 | 0.00 | 0.01 | 0.00 | 91 | 1015.5 |
| 20260901030404 | 59 | 96 | 0.0 | 0.0 | 0.00 | 0.01 | 0.00 | 90 | 1015.5 |
| 20260901025404 | 59 | 96 | 0.0 | 0.0 | 0.00 | 0.01 | 0.00 | 90 | 1015.5 |
| 20260901024904 | 59 | 96 | 0.0 | 0.0 | 0.00 | 0.01 | 0.00 | 90 | 1015.5 |
| 20260901024404 | 59 | 96 | 0.0 | 0.0 | 0.00 | 0.01 | 0.00 | 90 | 1015.5 |
| 20260901023904 | 59 | 96 | 0.0 | 0.0 | 0.00 | 0.01 | 0.00 | 90 | 1015.5 |
| 20260901023405 | 60 | 96 | 0.0 | 0.0 | 0.00 | 0.01 | 0.00 | 90 | 1015.4 |
| 20260901022904 | 60 | 96 | 0.0 | 0.0 | 0.00 | 0.01 | 0.00 | 90 | 1015.3 |
| 20260901022404 | 60 | 96 | 0.0 | 0.0 | 0.00 | 0.01 | 0.00 | 90 | 1015.3 |
| 20260901021904 | 60 | 96 | 0.0 | 0.0 | 0.00 | 0.01 | 0.00 | 90 | 1015.2 |
| 20260901020404 | 60 | 96 | 1.0 | 3.0 | 0.00 | 0.01 | 0.00 | 90 | 1015.2 |
| 20260901015904 | 61 | 96 | 0.0 | 0.0 | 0.00 | 0.01 | 0.00 | 90 | 1015.1 |
| 20260901015404 | 61 | 96 | 0.0 | 0.0 | 0.00 | 0.01 | 0.00 | 90 | 1015.1 |
| 20260901014904 | 61 | 96 | 0.0 | 0.0 | 0.00 | 0.01 | 0.00 | 90 | 1015.1 |
| 20260901014404 | 61 | 96 | 0.0 | 0.0 | 0.00 | 0.01 | 0.00 | 90 | 1015.1 |
| 20260901013904 | 61 | 96 | 1.0 | 2.0 | 0.00 | 0.01 | 0.00 | 90 | 1015.1 |
| 20260901013404 | 61 | 96 | 0.0 | 2.0 | 0.00 | 0.01 | 0.00 | 90 | 1015.1 |
| 20260901012904 | 61 | 96 | 2.0 | 3.0 | 0.00 | 0.01 | 0.00 | 89 | 1015.1 |
| 20260901012404 | 61 | 203 | 1.0 | 3.0 | 0.00 | 0.01 | 0.00 | 89 | 1015.1 |
| 20260901011904 | 62 | 213 | 0.0 | 0.0 | 0.00 | 0.01 | 0.00 | 89 | 1015.0 |
| 20260901011404 | 62 | 213 | 0.0 | 0.0 | 0.00 | 0.01 | 0.00 | 89 | 1015.0 |
| 20260901010904 | 62 | 213 | 0.0 | 0.0 | 0.00 | 0.01 | 0.00 | 89 | 1015.0 |
| 20260901010404 | 62 | 213 | 0.0 | 0.0 | 0.00 | 0.01 | 0.00 | 89 | 1015.0 |
| 20260901005905 | 62 | 213 | 0.0 | 0.0 | 0.00 | 0.01 | 0.00 | 89 | 1015.0 |
| 20260901005404 | 62 | 213 | 0.0 | 0.0 | 0.00 | 0.01 | 0.00 | 89 | 1015.0 |
| 20260901004904 | 63 | 213 | 0.0 | 0.0 | 0.00 | 0.01 | 0.00 | 89 | 1015.0 |
| 20260901004404 | 63 | 213 | 0.0 | 0.0 | 0.00 | 0.01 | 0.00 | 89 | 1015.0 |
| 20260901003904 | 63 | 213 | 0.0 | 0.0 | 0.00 | 0.01 | 0.00 | 89 | 1015.0 |
| 20260901003404 | 63 | 213 | 0.0 | 0.0 | 0.00 | 0.01 | 0.00 | 89 | 1015.1 |
| 20260901002904 | 63 | 213 | 0.0 | 0.0 | 0.00 | 0.01 | 0.00 | 89 | 1015.0 |
| 20260901002404 | 63 | 213 | 0.0 | 0.0 | 0.00 | 0.01 | 0.00 | 89 | 1015.0 |
| 20260901001904 | 63 | 213 | 0.0 | 0.0 | 0.00 | 0.01 | 0.00 | 89 | 1015.0 |
| 20260901001404 | 63 | 213 | 0.0 | 0.0 | 0.00 | 0.01 | 0.00 | 89 | 1015.0 |
| 20260901000904 | 64 | 213 | 0.0 | 0.0 | 0.00 | 0.01 | 0.00 | 89 | 1015.0 |
| 20260901000405 | 64 | 213 | 0.0 | 0.0 | 0.00 | 0.01 | 0.00 | 89 | 1015.0 |
| 20260831235904 | 64 | 213 | 0.0 | 20.0 | 0.00 | 0.01 | 0.00 | 89 | 1014.9 |
| 20260831235404 | 64 | 213 | 0.0 | 0.0 | 0.00 | 0.01 | 0.00 | 89 | 1014.9 |
| 20260831234904 | 64 | 213 | 0.0 | 0.0 | 0.00 | 0.01 | 0.00 | 89 | 1014.9 |
| 20260831234404 | 64 | 213 | 0.0 | 0.0 | 0.00 | 0.01 | 0.00 | 89 | 1014.9 |
| 20260831233404 | 64 | 213 | 0.0 | 0.0 | 0.00 | 0.01 | 0.00 | 89 | 1015.0 |
| 20260831232404 | 64 | 213 | 0.0 | 0.0 | 0.00 | 0.01 | 0.00 | 89 | 1015.1 |
| 20260831231904 | 64 | 213 | 0.0 | 0.0 | 0.00 | 0.01 | 0.00 | 89 | 1015.1 |
| 20260831231405 | 64 | 213 | 0.0 | 0.0 | 0.00 | 0.01 | 0.00 | 89 | 1015.1 |
| 20260831230904 | 64 | 213 | 0.0 | 0.0 | 0.00 | 0.01 | 0.00 | 89 | 1015.1 |
| 20260831225905 | 64 | 213 | 0.0 | 0.0 | 0.00 | 0.01 | 0.00 | 88 | 1015.3 |
| 20260831225404 | 64 | 213 | 0.0 | 0.0 | 0.00 | 0.01 | 0.00 | 88 | 1015.4 |
| 20260831224904 | 64 | 213 | 0.0 | 0.0 | 0.00 | 0.01 | 0.00 | 88 | 1015.5 |
| 20260831223904 | 64 | 213 | 0.0 | 0.0 | 0.00 | 0.01 | 0.00 | 88 | 1015.5 |
| 20260831222904 | 65 | 213 | 0.0 | 0.0 | 0.00 | 0.01 | 0.00 | 88 | 1015.6 |
| 20260831222404 | 65 | 213 | 0.0 | 0.0 | 0.00 | 0.01 | 0.00 | 88 | 1015.6 |
| 20260831221904 | 65 | 213 | 0.0 | 0.0 | 0.00 | 0.01 | 0.00 | 88 | 1015.6 |
| 20260831221404 | 65 | 213 | 0.0 | 0.0 | 0.00 | 0.01 | 0.00 | 87 | 1015.6 |
| 20260831220904 | 65 | 213 | 0.0 | 0.0 | 0.00 | 0.01 | 0.00 | 87 | 1015.6 |
| 20260831215404 | 65 | 213 | 0.0 | 0.0 | 0.00 | 0.01 | 0.01 | 86 | 1015.4 |
| 20260831214904 | 65 | 213 | 0.0 | 0.0 | 0.00 | 0.01 | 0.01 | 86 | 1015.3 |
| 20260831214404 | 65 | 213 | 0.0 | 0.0 | 0.00 | 0.01 | 0.01 | 86 | 1015.2 |
| 20260831213904 | 65 | 213 | 0.0 | 0.0 | 0.00 | 0.01 | 0.01 | 86 | 1015.1 |
| 20260831213405 | 65 | 213 | 0.0 | 0.0 | 0.00 | 0.01 | 0.01 | 86 | 1014.9 |
| 20260831212904 | 65 | 213 | 0.0 | 0.0 | 0.00 | 0.01 | 0.01 | 86 | 1014.9 |
| 20260831211904 | 66 | 213 | 0.0 | 0.0 | 0.00 | 0.01 | 0.01 | 86 | 1014.7 |
| 20260831211404 | 66 | 213 | 0.0 | 0.0 | 0.00 | 0.01 | 0.01 | 86 | 1014.7 |
| 20260831210904 | 66 | 213 | 0.0 | 0.0 | 0.00 | 0.01 | 0.01 | 86 | 1014.7 |
| 20260831210405 | 66 | 213 | 0.0 | 0.0 | 0.00 | 0.01 | 0.01 | 86 | 1014.6 |
| 20260831205904 | 66 | 213 | 0.0 | 0.0 | 0.00 | 0.01 | 0.01 | 85 | 1014.7 |
| 20260831205404 | 66 | 213 | 0.0 | 0.0 | 0.00 | 0.01 | 0.01 | 85 | 1014.7 |
| 20260831204904 | 66 | 213 | 0.0 | 0.0 | 0.00 | 0.01 | 0.01 | 85 | 1014.6 |
| 20260831203904 | 67 | 213 | 0.0 | 0.0 | 0.00 | 0.01 | 0.01 | 85 | 1014.2 |
| 20260831203404 | 67 | 213 | 0.0 | 0.0 | 0.00 | 0.01 | 0.01 | 85 | 1014.0 |
| 20260831202904 | 67 | 213 | 0.0 | 0.0 | 0.00 | 0.01 | 0.01 | 85 | 1013.9 |
| 20260831202404 | 67 | 213 | 0.0 | 0.0 | 0.00 | 0.01 | 0.01 | 84 | 1013.9 |
| 20260831201905 | 67 | 213 | 0.0 | 0.0 | 0.00 | 0.01 | 0.01 | 84 | 1013.9 |
| 20260831200904 | 67 | 213 | 0.0 | 0.0 | 0.00 | 0.01 | 0.01 | 83 | 1013.7 |
| 20260831200404 | 68 | 213 | 0.0 | 0.0 | 0.00 | 0.01 | 0.01 | 83 | 1013.7 |
| 20260831195904 | 68 | 213 | 0.0 | 0.0 | 0.00 | 0.01 | 0.01 | 83 | 1013.7 |
| 20260831195404 | 68 | 213 | 0.0 | 0.0 | 0.00 | 0.01 | 0.01 | 83 | 1013.7 |
| 20260831194904 | 68 | 213 | 0.0 | 0.0 | 0.00 | 0.01 | 0.01 | 83 | 1013.6 |
| 20260831194405 | 68 | 213 | 0.0 | 0.0 | 0.00 | 0.01 | 0.01 | 82 | 1013.4 |
| 20260831193904 | 68 | 213 | 0.0 | 0.0 | 0.00 | 0.01 | 0.01 | 82 | 1013.4 |
| 20260831193404 | 69 | 213 | 0.0 | 0.0 | 0.00 | 0.01 | 0.01 | 81 | 1013.4 |
| 20260831192904 | 69 | 213 | 0.0 | 0.0 | 0.00 | 0.01 | 0.01 | 81 | 1013.3 |
| 20260831192404 | 69 | 213 | 0.0 | 0.0 | 0.00 | 0.01 | 0.01 | 81 | 1013.2 |
| 20260831191904 | 69 | 213 | 0.0 | 0.0 | 0.00 | 0.01 | 0.01 | 80 | 1013.2 |
| 20260831191404 | 69 | 213 | 0.0 | 0.0 | 0.00 | 0.01 | 0.01 | 80 | 1013.1 |
| 20260831190404 | 70 | 213 | 0.0 | 1.0 | 0.00 | 0.01 | 0.01 | 78 | 1012.9 |
| 20260831185904 | 70 | 213 | 0.0 | 1.0 | 0.00 | 0.01 | 0.01 | 78 | 1012.8 |
| 20260831185404 | 70 | 213 | 0.0 | 1.0 | 0.00 | 0.01 | 0.01 | 78 | 1012.8 |
| 20260831184904 | 71 | 213 | 0.0 | 0.0 | 0.00 | 0.01 | 0.01 | 77 | 1012.7 |
| 20260831184404 | 71 | 213 | 0.0 | 0.0 | 0.00 | 0.01 | 0.01 | 76 | 1012.6 |
| 20260831183904 | 71 | 213 | 0.0 | 1.0 | 0.00 | 0.01 | 0.01 | 76 | 1012.6 |
| 20260831183404 | 71 | 213 | 0.0 | 2.0 | 0.00 | 0.01 | 0.01 | 75 | 1012.5 |
| 20260831182905 | 72 | 213 | 0.0 | 0.0 | 0.00 | 0.01 | 0.01 | 75 | 1012.5 |
| 20260831181904 | 72 | 213 | 0.0 | 0.0 | 0.00 | 0.01 | 0.01 | 74 | 1012.6 |
| 20260831180905 | 73 | 213 | 0.0 | 0.0 | 0.00 | 0.01 | 0.01 | 73 | 1012.5 |
| 20260831180404 | 73 | 213 | 0.0 | 0.0 | 0.00 | 0.01 | 0.01 | 73 | 1012.5 |
| 20260831175904 | 74 | 213 | 0.0 | 0.0 | 0.00 | 0.01 | 0.01 | 73 | 1012.5 |
| 20260831174904 | 74 | 213 | 0.0 | 0.0 | 0.00 | 0.01 | 0.01 | 71 | 1012.5 |
| 20260831174404 | 75 | 213 | 0.0 | 0.0 | 0.00 | 0.01 | 0.01 | 70 | 1012.4 |
| 20260831173904 | 75 | 213 | 0.0 | 0.0 | 0.00 | 0.01 | 0.01 | 69 | 1012.3 |
| 20260831173405 | 75 | 213 | 0.0 | 0.0 | 0.00 | 0.01 | 0.01 | 69 | 1012.4 |
| 20260831172904 | 76 | 213 | 0.0 | 2.0 | 0.00 | 0.01 | 0.01 | 68 | 1012.2 |
| 20260831171404 | 77 | 213 | 1.0 | 2.0 | 0.00 | 0.01 | 0.01 | 67 | 1012.2 |
| 20260831170904 | 77 | 213 | 1.0 | 3.0 | 0.00 | 0.01 | 0.01 | 66 | 1012.2 |
| 20260831170404 | 78 | 215 | 0.0 | 1.0 | 0.00 | 0.01 | 0.01 | 66 | 1012.2 |
| 20260831165904 | 78 | 215 | 0.0 | 0.0 | 0.00 | 0.01 | 0.01 | 64 | 1012.3 |
| 20260831165404 | 78 | 215 | 0.0 | 0.0 | 0.00 | 0.01 | 0.01 | 64 | 1012.3 |
| 20260831164904 | 79 | 215 | 0.0 | 0.0 | 0.00 | 0.01 | 0.01 | 63 | 1012.2 |
| 20260831164404 | 79 | 215 | 0.0 | 0.0 | 0.00 | 0.01 | 0.01 | 62 | 1012.2 |
| 20260831163904 | 80 | 215 | 0.0 | 0.0 | 0.00 | 0.01 | 0.01 | 62 | 1012.2 |
| 20260831163404 | 80 | 215 | 0.0 | 0.0 | 0.00 | 0.01 | 0.01 | 62 | 1012.3 |
| 20260831162404 | 81 | 215 | 0.0 | 0.0 | 0.00 | 0.01 | 0.01 | 59 | 1012.2 |
| 20260831161904 | 81 | 215 | 0.0 | 0.0 | 0.00 | 0.01 | 0.01 | 58 | 1012.2 |
| 20260831161404 | 81 | 215 | 0.0 | 2.0 | 0.00 | 0.01 | 0.01 | 58 | 1012.2 |